This is the latest recevied weather packets stored in our database for station/object DO1SC. If no packets are shown the sender has not sent any weather packets the latest 10 day(s).
| Time | Temp. | Humidity | Pressure | Rain* | Wind** | Luminosity | Snow |
|---|---|---|---|---|---|---|---|
| 1777310135 | 12.78° C | 42% | 1021.6 hPa | - | - | 53 W/m² | - |
| 1777308330 | 13.33° C | 38% | 1021.6 hPa | - | - | 59 W/m² | - |
| 1777307721 | 13.89° C | 38% | 1021.7 hPa | - | - | 71 W/m² | - |
| 1777307135 | 13.89° C | 38% | 1021.7 hPa | - | - | 67 W/m² | - |
| 1777306524 | 13.89° C | 37% | 1021.6 hPa | - | - | 87 W/m² | - |
| 1777305939 | 13.89° C | 36% | 1021.6 hPa | - | - | 100 W/m² | - |
| 1777305327 | 13.89° C | 36% | 1021.5 hPa | - | - | 123 W/m² | - |
| 1777304130 | 13.89° C | 37% | 1021.6 hPa | - | - | 126 W/m² | - |
| 1777303522 | 14.44° C | 36% | 1021.7 hPa | - | - | 117 W/m² | - |
| 1777302325 | 14.44° C | 34% | 1021.8 hPa | - | - | 303 W/m² | - |
| 1777300520 | 14.44° C | 35% | 1022 hPa | - | - | 306 W/m² | - |
| 1777299935 | 13.89° C | 34% | 1022.1 hPa | - | - | 342 W/m² | - |
| 1777299323 | 13.89° C | 36% | 1022.3 hPa | - | - | 353 W/m² | - |
| 1777298735 | 13.89° C | 35% | 1022.3 hPa | - | - | 349 W/m² | - |
| 1777298126 | 13.89° C | 35% | 1022.3 hPa | - | - | 335 W/m² | - |
| 1777296930 | 13.89° C | 37% | 1022.5 hPa | - | - | 380 W/m² | - |
| 1777295732 | 13.33° C | 36% | 1022.6 hPa | - | - | 405 W/m² | - |
| 1777295127 | 13.89° C | 36% | 1022.7 hPa | - | - | 464 W/m² | - |
| 1777294535 | 13.89° C | 37% | 1022.7 hPa | - | - | 458 W/m² | - |
| 1777293929 | 13.89° C | 36% | 1022.7 hPa | - | - | 482 W/m² | - |
| 1777293318 | 13.89° C | 36% | 1022.7 hPa | - | - | 351 W/m² | - |
| 1777292732 | 13.89° C | 35% | 1022.7 hPa | - | - | 478 W/m² | - |
| 1777292121 | 14.44° C | 35% | 1022.9 hPa | - | - | 633 W/m² | - |
| 1777291533 | 13.89° C | 36% | 1022.9 hPa | - | - | 534 W/m² | - |
| 1777289727 | 13.33° C | 36% | 1023.2 hPa | - | - | 648 W/m² | - |
* Rain since midnight (hover to see other rain measurements)
** Current wind speed in m/s (hover to see current wind gust speed)